Hamilton Island, Australia

2:54 PM AEST on March 25, 2017 (GMT +1000)
Hamilton Island

Weather History for YBHM - January, 2013

Change the Weather History Date:

Tuesday, January 22, 2013

  Actual Average Record
Temperature  
Mean Temperature 82 °F -  
Max Temperature 86 °F - - ()
Min Temperature 77 °F - - ()
Cooling Degree Days 16    
Growing Degree Days 32 (Base 50)    
Moisture  
Dew Point 76 °F    
Average Humidity 81    
Maximum Humidity 94    
Minimum Humidity 67    
Precipitation  
Precipitation 0.04 in - - ()
Sea Level Pressure  
Sea Level Pressure 29.67 in    
Wind  
Wind Speed 24 mph ()    
Max Wind Speed 31 mph    
Max Gust Speed 37 mph    
T = Trace of Precipitation, MM = Missing Value Source: Averaged Metar Reports

Daily Weather History Graph

Daily Weather History Graph

Search for Another Location

Airport or City:

Trip Planner

Search our weather history database for the weather conditions in past years. The results will help you decide how hot, cold, wet, or windy it might be!

Date:

Astronomy

Jan. 22, 2013 Rise Set
Actual Time 5:41 AM AEST 6:49 PM AEST
Civil Twilight 5:17 AM AEST 7:13 PM AEST
Nautical Twilight 4:49 AM AEST 7:42 PM AEST
Astronomical Twilight 4:20 AM AEST 8:11 PM AEST
Moon 2:52 PM AEST (1/22) 1:23 AM AEST (1/22)
Length of Visible Light 13h 56m
Length of Day
13h 08m
Waxing Gibbous, 78% of the Moon is Illuminated
Jan 22
Waxing Gibbous
Jan 27
Full
Feb 3
Last Quarter
Feb 10
New
Feb 18
First Quarter

Hourly Weather History & Observations

Time (AEST) Temp. Heat Index Dew Point Humidity Pressure Visibility Wind Dir Wind Speed Gust Speed Precip Events Conditions
12:00 AM 80 °F - 77 °F 86% 29.70 in - ESE 24.2 mph - -  
12:00 AM 80.6 °F 87.1 °F 77.0 °F 89% 29.71 in - ESE 24.2 mph - N/A   Unknown
12:30 AM 80.6 °F 87.1 °F 77.0 °F 89% 29.68 in - ESE 24.2 mph - N/A   Unknown
1:00 AM 80.6 °F 87.1 °F 77.0 °F 89% 29.65 in - ESE 26.5 mph - N/A   Unknown
1:30 AM 80.6 °F 86.2 °F 75.2 °F 84% 29.65 in - ESE 27.6 mph - N/A   Unknown
2:00 AM 80.6 °F 86.2 °F 75.2 °F 84% 29.65 in - ESE 27.6 mph - N/A   Unknown
2:30 AM 80.6 °F 87.1 °F 77.0 °F 89% 29.62 in - ESE 27.6 mph - N/A   Unknown
3:00 AM 80 °F - 76 °F 85% 29.63 in - ESE 27.6 mph - -  
3:00 AM 80.6 °F 87.1 °F 77.0 °F 89% 29.62 in - ESE 27.6 mph - N/A   Unknown
3:30 AM 80.6 °F 87.1 °F 77.0 °F 89% 29.62 in - ESE 26.5 mph - N/A   Unknown
4:00 AM 80.6 °F 88.1 °F 78.8 °F 94% 29.62 in - ESE 23.0 mph - N/A   Unknown
4:08 AM 78.8 °F - 77.0 °F 94% 29.62 in - ESE 25.3 mph 36.8 mph N/A   Unknown
4:30 AM 80.6 °F 87.1 °F 77.0 °F 89% 29.65 in - East 28.8 mph - N/A   Unknown
5:00 AM 80.6 °F 86.2 °F 75.2 °F 84% 29.65 in - ESE 29.9 mph - N/A   Unknown
5:30 AM 80.6 °F 86.2 °F 75.2 °F 84% 29.65 in - ESE 28.8 mph - N/A   Unknown
6:00 AM 81 °F - 74 °F 74% 29.68 in - East 28.8 mph - -  
6:00 AM 80.6 °F 85.4 °F 73.4 °F 79% 29.68 in - East 28.8 mph - N/A   Unknown
6:30 AM 80.6 °F 86.2 °F 75.2 °F 84% 29.68 in - ESE 28.8 mph - N/A   Unknown
7:00 AM 80.6 °F 85.4 °F 73.4 °F 79% 29.68 in - East 31.1 mph - N/A   Unknown
7:30 AM 82.4 °F 89.5 °F 75.2 °F 79% 29.71 in - ESE 27.6 mph - N/A   Unknown
8:00 AM 82.4 °F 88.2 °F 73.4 °F 74% 29.71 in - East 28.8 mph - N/A   Unknown
8:30 AM 82.4 °F 88.2 °F 73.4 °F 74% 29.71 in - East 27.6 mph - N/A   Unknown
9:00 AM 83 °F - 74 °F 68% 29.72 in - East 25.3 mph - -  
9:00 AM 84.2 °F 90.9 °F 73.4 °F 70% 29.71 in - East 25.3 mph - N/A   Unknown
9:30 AM 84.2 °F 92.3 °F 75.2 °F 74% 29.71 in - East 25.3 mph - N/A   Unknown
10:00 AM 84.2 °F 92.3 °F 75.2 °F 74% 29.71 in - East 26.5 mph - N/A   Unknown
10:30 AM 84.2 °F 92.3 °F 75.2 °F 74% 29.71 in - ESE 24.2 mph - N/A   Unknown
11:00 AM 84.2 °F 90.9 °F 73.4 °F 70% 29.71 in - ESE 25.3 mph - N/A   Unknown
11:30 AM 86.0 °F 95.1 °F 75.2 °F 70% 29.71 in - East 25.3 mph - N/A   Unknown
12:00 PM 85 °F - 76 °F 67% 29.68 in - ESE 24.2 mph - -  
12:00 PM 84.2 °F 92.3 °F 75.2 °F 74% 29.68 in - ESE 24.2 mph - N/A   Unknown
12:30 PM 84.2 °F 90.9 °F 73.4 °F 70% 29.68 in - East 24.2 mph - N/A   Unknown
1:00 PM 84.2 °F 92.3 °F 75.2 °F 74% 29.65 in - ESE 23.0 mph - N/A   Unknown
1:30 PM 86.0 °F 95.1 °F 75.2 °F 70% 29.65 in - ESE 25.3 mph - N/A   Unknown
2:00 PM 86.0 °F 96.9 °F 77.0 °F 74% 29.65 in - ESE 25.3 mph - N/A   Unknown
2:30 PM 84.2 °F 92.3 °F 75.2 °F 74% 29.65 in - ESE 24.2 mph - N/A   Unknown
3:00 PM 84 °F - 75 °F 67% 29.64 in - ESE 26.5 mph - -  
3:00 PM 84.2 °F 92.3 °F 75.2 °F 74% 29.62 in - ESE 26.5 mph - N/A   Unknown
3:30 PM 84.2 °F 90.9 °F 73.4 °F 70% 29.62 in - ESE 23.0 mph - N/A   Unknown
4:00 PM 84.2 °F 94.1 °F 77.0 °F 79% 29.62 in - ESE 21.9 mph - N/A   Unknown
4:30 PM 84.2 °F 94.1 °F 77.0 °F 79% 29.62 in - ESE 24.2 mph - N/A   Unknown
5:00 PM 82.4 °F 90.9 °F 77.0 °F 84% 29.62 in - ESE 23.0 mph - N/A   Unknown
5:30 PM 82.4 °F 89.5 °F 75.2 °F 79% 29.65 in - ESE 24.2 mph - N/A   Unknown
6:00 PM 82 °F - 76 °F 79% 29.65 in - ESE 25.3 mph - -  
6:00 PM 82.4 °F 90.9 °F 77.0 °F 84% 29.65 in - ESE 25.3 mph - N/A   Unknown
6:30 PM 82.4 °F 90.9 °F 77.0 °F 84% 29.68 in - ESE 23.0 mph - N/A   Unknown
7:00 PM 82.4 °F 90.9 °F 77.0 °F 84% 29.68 in - ESE 24.2 mph - N/A   Unknown
7:07 PM 80.6 °F 87.1 °F 77.0 °F 89% 29.68 in - ESE 24.2 mph 35.7 mph N/A   Unknown
7:30 PM 80.6 °F 88.1 °F 78.8 °F 94% 29.68 in - SE 19.6 mph - N/A   Unknown
8:02 PM 77.0 °F - 75.2 °F 94% 29.68 in - ESE 24.2 mph 35.7 mph N/A   Unknown
8:30 PM 80.6 °F 86.2 °F 75.2 °F 84% 29.68 in - ESE 24.2 mph - N/A   Unknown
9:00 PM 81 °F - 77 °F 84% 29.68 in - ESE 25.3 mph - -  
9:00 PM 80.6 °F 87.1 °F 77.0 °F 89% 29.68 in - ESE 25.3 mph - N/A   Unknown
9:30 PM 80.6 °F 87.1 °F 77.0 °F 89% 29.68 in - SE 26.5 mph - N/A   Unknown
10:00 PM 80.6 °F 87.1 °F 77.0 °F 89% 29.68 in - ESE 26.5 mph - N/A   Unknown
10:30 PM 80.6 °F 87.1 °F 77.0 °F 89% 29.68 in - ESE 28.8 mph - N/A   Unknown
11:00 PM 80.6 °F 87.1 °F 77.0 °F 89% 29.68 in - ESE 29.9 mph - N/A   Unknown
11:30 PM 80.6 °F 87.1 °F 77.0 °F 89% 29.68 in - ESE 29.9 mph - N/A   Unknown